Home > Weather > Washington DC > Past weeks

Flag for U.S.A. Weather for the Past 2 Weeks in Washington DC, District of Columbia, U.S.A.

Now
33 °F

Partly sunny.


Feels Like: 30 °F
Forecast: 26 / 44 °F
Wind: 3 mph from South

Location: Reagan National Airport

Current Time: Feb 6, 2016 at 9:43:19 AM

Latest Report: Feb 6, 2016 at 8:52 AM


Visibility: 10 mi

Pressure: 30.47 "Hg

Humidity: 70%

Dew point: 24 °F

Location of Washington DCLocation

Historic Weather in Washington DC — Graph

°F

Washington DC Temperature Yesterday

Maximum temperature yesterday: 43 °F (at 1:52 PM)
Minimum temperature yesterday: 34 °F (at 11:52 PM)
Average temperature yesterday: 39 °F

High & Low Weather Summary for the Past Weeks

 TemperatureHumidityPressure
High60 °F (Feb 1, 12:52 PM)100% (Feb 3, 4:52 PM)30.47 "Hg (Feb 3, 4:52 PM)
Low17 °F (Jan 25, 5:52 AM)38% (Feb 5, 3:52 PM)29.55 "Hg (Jan 23, 1:52 PM)
Average38 °F68%30.04 "Hg
* Reported Jan 22 7:52 AM — Feb 6 7:52 AM, Washington DC, Weather by CustomWeather, © 2016

Note: Actual official high and low records may vary slightly from our data, if they occured in-between our weather recording intervals... More about our weather records

Advertising

Washington DC Weather History for the Previous 24 Hours

 ConditionsComfort  
Time TempWeatherWind HumidityBarometerVisibility
7:52 AM
Sat, Feb 6
30 °FPartly sunny.No wind79%30.47 "Hg10 mi
6:52 AM30 °FPassing clouds.3 mph69%30.45 "Hg10 mi
5:52 AM30 °FPassing clouds.3 mph69%30.45 "Hg10 mi
4:52 AM30 °FClear.5 mph69%30.43 "Hg10 mi
3:52 AM30 °FClear.5 mph72%30.43 "Hg10 mi
2:52 AM31 °FClear.5 mph67%30.42 "Hg10 mi
1:52 AM33 °FClear.No wind63%30.42 "Hg10 mi
12:52 AM35 °FPassing clouds.5 mph48%30.41 "Hg10 mi
11:52 PM
Fri, Feb 5
34 °FPassing clouds.5 mph52%30.41 "Hg10 mi
10:52 PM35 °FPassing clouds.7 mph48%30.41 "Hg10 mi
9:52 PM35 °FPassing clouds.7 mph50%30.40 "Hg10 mi
8:52 PM35 °FClear.10 mph50%30.39 "Hg10 mi
7:52 PM37 °FClear.9 mph46%30.39 "Hg10 mi
6:52 PM38 °FClear.10 mph45%30.37 "Hg10 mi
5:52 PM40 °FPassing clouds.17 mph41%30.36 "Hg10 mi
4:52 PM41 °FPassing clouds.18 mph41%30.33 "Hg10 mi
3:52 PM43 °FPassing clouds.13 mph38%30.31 "Hg10 mi
2:52 PM43 °FPassing clouds.20 mph40%30.29 "Hg10 mi
1:52 PM43 °FScattered clouds.15 mph40%30.28 "Hg10 mi
12:52 PM42 °FScattered clouds.18 mph47%30.28 "Hg10 mi
11:52 AM41 °FScattered clouds.22 mph53%30.28 "Hg10 mi
10:52 AM39 °FOvercast.23 mph60%30.26 "Hg10 mi
9:52 AM37 °FLight snow. Mostly cloudy.22 mph67%30.24 "Hg10 mi
Weather by CustomWeather, © 2016

See weather overviewHow to use our weather pages